Weather History for Rochelle, IL

Change the Weather History Date:

Thursday, February 16, 2012

  Actual Average (KRFD) Record (KRFD)
Temperature  
Mean Temperature 37 °F 26 °F  
Max Temperature 44 °F 34 °F 57 °F (1921)
Min Temperature 30 °F 18 °F -10 °F (1958)
Degree Days  
Heating Degree Days 28 39  
Month to date heating degree days 655  
Since 1 July heating degree days 4564  
Cooling Degree Days 0 0  
Month to date cooling degree days 0  
Year to date cooling degree days 0  
Moisture  
Dew Point 32 °F    
Average Humidity 85    
Maximum Humidity 100    
Minimum Humidity 50    
Precipitation  
Precipitation 0.01 in 0.05 in 0.43 in (2006)
Month to date precipitation 0.72  
Year to date precipitation 2.09  
Snow  
Snow 0.00 in 0.20 in 4.50 in (1925)
Month to date snowfall 4.7  
Since 1 July snowfall 28.0  
Snow Depth -    
Sea Level Pressure  
Sea Level Pressure 30.05 in    
Wind  
Wind Speed 7 mph (WNW)    
Max Wind Speed 20 mph    
Max Gust Speed 23 mph    
Visibility 6 miles    
Events Fog , Rain    
T = Trace of Precipitation, MM = Missing Value Source: NWS Daily Summary

Daily Weather History Graph

Daily Weather History Graph

Search for Another Location

Airport:

Trip Planner

Search our weather history database for the weather conditions in past years. The results will help you decide how hot, cold, wet, or windy it might be!

Date:

Astronomy

Feb. 16, 2012 Rise Set
Actual Time 6:51 AM CST 5:30 PM CST
Civil Twilight 6:22 AM CST 5:58 PM CST
Nautical Twilight 5:50 AM CST 6:31 PM CST
Astronomical Twilight 5:17 AM CST 7:03 PM CST
Moon 2:50 AM CST (2/16) 12:18 PM CST (2/16)
Length of Visible Light 11h 35m
Length of Day
10h 38m
Waning Crescent, 28% of the Moon is Illuminated
Feb 16
Waning Crescent
Feb 21
New
Feb 29
First Quarter
Mar 8
Full
Mar 14
Last Quarter

Hourly Weather History & Observations

Time (CST) Temp. Windchill Dew Point Humidity Pressure Visibility Wind Dir Wind Speed Gust Speed Precip Events Conditions
12:15 AM 34.7 °F 31.8 °F 34.7 °F 100% 29.97 in 0.2 mi WSW 3.5 mph - N/A   Light Drizzle
12:35 AM 34.7 °F 31.8 °F 34.7 °F 100% 29.97 in 0.2 mi WSW 3.5 mph - N/A   Drizzle
12:55 AM 34.7 °F - 34.7 °F 100% 29.97 in 0.5 mi Calm Calm - N/A Rain Light Rain
1:15 AM 34.9 °F - 34.9 °F 100% 29.97 in 0.5 mi Calm Calm - N/A Fog Fog
1:35 AM 35.1 °F - 35.1 °F 100% 29.96 in 0.2 mi Calm Calm - N/A Fog Fog
1:55 AM 34.9 °F 30.8 °F 34.9 °F 100% 29.96 in 0.2 mi West 4.6 mph - N/A Fog Fog
2:15 AM 35.6 °F 30.7 °F 35.6 °F 100% 29.96 in 0.2 mi WNW 5.8 mph - N/A Fog Fog
2:35 AM 36.0 °F 29.0 °F 36.0 °F 100% 29.97 in 0.2 mi NW 9.2 mph - N/A Fog Fog
2:55 AM 35.6 °F 30.7 °F 35.6 °F 100% 29.97 in 0.8 mi NW 5.8 mph - N/A   Mist
3:15 AM 35.2 °F 30.3 °F 35.2 °F 100% 29.97 in 1.8 mi NW 5.8 mph - N/A   Mist
3:35 AM 34.7 °F 29.6 °F 34.7 °F 100% 29.97 in 2.5 mi NW 5.8 mph - N/A   Mist
3:55 AM 33.8 °F 28.6 °F 33.8 °F 100% 29.97 in 3.0 mi NW 5.8 mph - N/A   Mist
4:15 AM 33.1 °F 27.7 °F 33.1 °F 100% 29.98 in 2.5 mi NW 5.8 mph - N/A   Mist
4:35 AM 32.9 °F 29.8 °F 32.9 °F 100% 29.98 in 2.0 mi NW 3.5 mph - N/A   Mist
4:55 AM 32.9 °F - 32.9 °F 100% 29.98 in 2.0 mi Calm Calm - N/A   Mist
5:15 AM 32.0 °F 28.7 °F 32.0 °F 100% 29.99 in 1.5 mi WNW 3.5 mph - N/A   Mist
5:35 AM 31.6 °F 28.3 °F 31.6 °F 100% 29.99 in 1.2 mi WNW 3.5 mph - N/A   Mist
5:55 AM 31.8 °F 28.5 °F 31.8 °F 100% 29.99 in 1.5 mi West 3.5 mph - N/A   Mist
6:15 AM 31.5 °F 26.8 °F 31.5 °F 100% 30.00 in 1.8 mi West 4.6 mph - N/A   Mist
6:35 AM 31.1 °F - 31.1 °F 100% 30.00 in 2.0 mi Calm Calm - N/A   Clear
6:55 AM 30.9 °F 26.2 °F 30.9 °F 100% 30.01 in 1.5 mi WNW 4.6 mph - N/A   Mist
7:15 AM 32.0 °F 25.6 °F 32.0 °F 100% 30.02 in 1.5 mi WNW 6.9 mph - N/A   Mist
7:35 AM 32.2 °F 25.8 °F 32.2 °F 100% 30.03 in 1.8 mi WNW 6.9 mph - N/A   Mist
7:55 AM 32.9 °F 27.5 °F 32.9 °F 100% 30.05 in 2.0 mi WNW 5.8 mph - N/A   Clear
8:15 AM 33.8 °F 28.6 °F 33.3 °F 98% 30.06 in 2.5 mi WNW 5.8 mph - N/A   Scattered Clouds
8:35 AM 33.8 °F 28.6 °F 33.3 °F 98% 30.06 in 2.0 mi WNW 5.8 mph - N/A   Mist
8:55 AM 34.9 °F 27.1 °F 34.0 °F 97% 30.07 in 2.0 mi West 10.4 mph - N/A   Mist
9:15 AM 36.5 °F 28.2 °F 34.9 °F 94% 30.08 in 3.0 mi WNW 12.7 mph - N/A   Mist
9:35 AM 37.4 °F 29.8 °F 34.9 °F 91% 30.08 in 3.0 mi WNW 11.5 mph - N/A   Clear
9:55 AM 39.0 °F 32.3 °F 35.4 °F 87% 30.09 in 5.0 mi NW 10.4 mph - N/A   Clear
10:15 AM 39.9 °F 32.9 °F 35.1 °F 83% 30.09 in 7.0 mi NW 11.5 mph - N/A   Clear
10:35 AM 41.0 °F 35.2 °F 34.9 °F 79% 30.09 in 7.0 mi NW 9.2 mph - N/A   Clear
10:55 AM 41.2 °F 33.7 °F 34.9 °F 78% 30.09 in 7.0 mi NW 13.8 mph - N/A   Scattered Clouds
11:15 AM 41.7 °F 34.4 °F 34.9 °F 77% 30.09 in 7.0 mi WNW 13.8 mph - N/A   Scattered Clouds
11:35 AM 42.4 °F 35.7 °F 35.2 °F 76% 30.09 in 7.0 mi WNW 12.7 mph - N/A   Unknown
11:55 AM 42.3 °F 34.1 °F 34.0 °F 72% 30.09 in 10.0 mi WNW 17.3 mph 21.9 mph N/A   Unknown
12:15 PM 42.1 °F 34.2 °F 32.7 °F 69% 30.09 in 10.0 mi WNW 16.1 mph 23.0 mph N/A   Unknown
12:35 PM 43.0 °F 34.8 °F 32.2 °F 66% 30.09 in 10.0 mi WNW 18.4 mph 21.9 mph 0.01 in   Unknown
12:55 PM 43.7 °F 36.9 °F 32.0 °F 63% 30.09 in 10.0 mi WNW 13.8 mph 20.7 mph 0.01 in   Unknown
1:15 PM 43.7 °F 36.9 °F 28.6 °F 55% 30.08 in 10.0 mi WNW 13.8 mph 21.9 mph N/A   Unknown
1:35 PM 43.9 °F 36.2 °F 29.5 °F 57% 30.09 in 10.0 mi WNW 17.3 mph - N/A   Clear
1:55 PM 43.9 °F 35.7 °F 28.6 °F 55% 30.09 in 10.0 mi WNW 19.6 mph 23.0 mph N/A   Clear
2:15 PM 43.9 °F 36.2 °F 29.8 °F 58% 30.09 in 10.0 mi WNW 17.3 mph 23.0 mph N/A   Clear
2:35 PM 43.9 °F 36.8 °F 26.2 °F 50% 30.09 in 10.0 mi NW 15.0 mph 20.7 mph N/A   Clear
3:15 PM 44.1 °F 36.8 °F 27.3 °F 52% 30.09 in 10.0 mi West 16.1 mph - N/A   Clear
3:35 PM 43.7 °F 36.6 °F 27.0 °F 52% 30.09 in 10.0 mi West 15.0 mph 19.6 mph N/A   Clear
3:55 PM 43.3 °F 36.1 °F 28.8 °F 56% 30.10 in 10.0 mi West 15.0 mph 19.6 mph N/A   Scattered Clouds
4:15 PM 42.3 °F 35.5 °F 28.4 °F 58% 30.09 in 10.0 mi West 12.7 mph - N/A   Unknown
4:35 PM 40.8 °F 33.7 °F 29.3 °F 64% 30.10 in 10.0 mi WSW 12.7 mph 17.3 mph N/A   Unknown
5:15 PM 37.4 °F 30.8 °F 30.9 °F 77% 30.10 in 10.0 mi WSW 9.2 mph - N/A   Unknown
5:35 PM 35.4 °F 29.0 °F 30.2 °F 81% 30.10 in 10.0 mi WSW 8.1 mph - N/A   Unknown
6:15 PM 34.0 °F 26.6 °F 30.2 °F 86% 30.11 in 10.0 mi SW 9.2 mph - N/A   Unknown
6:35 PM 34.2 °F 26.2 °F 30.2 °F 85% 30.10 in 10.0 mi SW 10.4 mph - N/A   Unknown
6:55 PM 33.6 °F 27.5 °F 30.2 °F 87% 30.10 in 10.0 mi SW 6.9 mph - N/A   Mostly Cloudy
7:15 PM 33.8 °F 26.4 °F 30.2 °F 87% 30.11 in 10.0 mi WSW 9.2 mph - N/A   Unknown
7:35 PM 33.3 °F 25.1 °F 30.0 °F 88% 30.11 in 10.0 mi WSW 10.4 mph - N/A   Unknown
7:55 PM 33.1 °F 25.5 °F 29.7 °F 87% 30.12 in 10.0 mi WSW 9.2 mph - N/A   Unknown
8:15 PM 33.4 °F 25.4 °F 29.3 °F 85% 30.12 in 10.0 mi West 10.4 mph - N/A   Unknown
8:35 PM 33.8 °F 25.3 °F 28.8 °F 82% 30.12 in 10.0 mi West 11.5 mph - N/A   Clear
8:55 PM 32.9 °F 25.9 °F 28.4 °F 84% 30.13 in 10.0 mi West 8.1 mph - N/A   Clear
9:15 PM 32.0 °F 24.8 °F 28.4 °F 87% 30.14 in 10.0 mi West 8.1 mph - N/A   Clear
9:35 PM 32.0 °F 23.6 °F 28.4 °F 87% 30.14 in 10.0 mi West 10.4 mph - N/A   Clear
9:55 PM 32.0 °F 24.2 °F 28.0 °F 85% 30.14 in 10.0 mi West 9.2 mph - N/A   Clear
10:15 PM 31.5 °F 24.9 °F 27.7 °F 86% 30.14 in 10.0 mi West 6.9 mph - N/A   Clear
10:35 PM 31.1 °F 26.4 °F 27.5 °F 87% 30.14 in 10.0 mi WNW 4.6 mph - N/A   Clear
10:55 PM 30.0 °F 25.2 °F 27.0 °F 88% 30.13 in 10.0 mi WNW 4.6 mph - N/A   Clear
11:15 PM 29.5 °F 24.5 °F 26.6 °F 89% 30.13 in 10.0 mi WNW 4.6 mph - N/A   Clear
11:35 PM 29.8 °F 24.9 °F 25.9 °F 85% 30.12 in 10.0 mi NW 4.6 mph - N/A   Clear
11:55 PM 29.7 °F 24.7 °F 25.5 °F 85% 30.13 in 10.0 mi West 4.6 mph - N/A   Clear